Regional Weather Roundup
Issued by NWS

Home | Current Version | Previous Version | Text Only | Print | Product List | Glossary Off
Versions: 1 2 3 4 5 6 7 8 9 10 11 12 13 14 15 16 17 18 19 20 21 22 23 24 25 26 27 28 29 30 31 32 33 34 35 36 37 38 39 40 41 42 43 44 45 46 47 48 49 50

000
ASUS45 KABQ 041410
RWRNM
NEW MEXICO REGIONAL WEATHER ROUNDUP
NATIONAL WEATHER SERVICE ALBUQUERQUE NM
800 AM MDT TUE AUG 04 2015

NOTE: "FAIR" MEANS FEW OR NO CLOUDS BELOW 12,000 FEET AGL WITH NO
       SIGNIFICANT WEATHER OR OBSTRUCTIONS TO VISION.

      THIS PRODUCT IS RELEASED AS TWO VERSIONS.  ONE VERSION NEAR
      THE TOP OF THE HOUR CONTAINING PRELIMINARY DATA FROM ALBUQUERQUE
      AND OTHER STATIONS.  A FINAL VERSION WITH ADDITIONAL DATA IS
      ISSUED ABOUT 10 MINUTES AFTER THE HOUR.

NMZ501-503-504-510>518-041500-
NORTHWEST PLATEAU/NORTHCENTRAL MOUNTAINS

CITY           SKY/WX    TMP DP  RH WIND       PRES   REMARKS
FARMINGTON     SUNNY     65  46  50 SE5       30.21R
LOS ALAMOS     SUNNY     65  47  53 CALM      30.33R
SANTA FE       SUNNY     65  50  58 N12       30.26R
TAOS           MOSUNNY   55  43  62 N3        30.34R
ANGEL FIRE     FAIR      48  46  91 CALM      30.40S

$$
NMZ402-403-502-505>509-041500-
WESTCENTRAL MOUNTAINS/SOUTHWEST MOUNTAINS

CITY           SKY/WX    TMP DP  RH WIND       PRES   REMARKS
GALLUP         SUNNY     61  52  72 CALM      30.29R
GRANTS         SUNNY     61  56  85 N5        30.32S
SILVER CITY      N/A     68  57  68 NW3       30.20S

$$
NMZ407-409-411-412-041500-
SOUTHERN DESERTS

CITY           SKY/WX    TMP DP  RH WIND       PRES   REMARKS
LORDSBURG      FAIR      68  59  73 E3        30.12R
DEMING         MOSUNNY   71  61  70 E6        30.13R
LAS CRUCES     SUNNY     71  61  69 S6        30.16R
HOLLOMAN AFB   SUNNY     76  59  54 SW2       30.11R
ALAMOGORDO     SUNNY     75  57  53 S3        30.13S
T OR C         SUNNY     73  51  46 N6        30.16R

$$
NMZ519>523-041500-
CENTRAL VALLEYS/CENTRAL HIGHLANDS

CITY           SKY/WX    TMP DP  RH WIND       PRES   REMARKS
ALBUQUERQUE    MOSUNNY   69  46  43 CALM      30.22R
DOUBLE EAGLE   MOSUNNY   66  54  63 CALM      30.25R
MORIARTY ARPT    N/A     61  51  71 CALM      30.28S
CLINES CORNERS SUNNY     65  56  72 W5        30.29S
BELEN          FAIR      68  50  52 CALM      30.21R
SOCORRO        FAIR      67  56  68 NE3       30.17R

$$
NMZ524>526-539-540-041500-
SOUTHCENTRAL MOUNTAINS

CITY           SKY/WX    TMP DP  RH WIND       PRES   REMARKS
RUIDOSO          N/A    N/A N/A N/A MISG        N/A

$$
NMZ527>531-041500-
NORTHEAST HIGHLANDS/NORTHEAST PLAINS

CITY           SKY/WX    TMP DP  RH WIND       PRES   REMARKS
RATON          MOSUNNY   59  56  89 E7        30.22S
CLAYTON        SUNNY     66  59  78 SW6       30.10F

$$
NMZ532>537-041500-
EASTCENTRAL PLAINS

CITY           SKY/WX    TMP DP  RH WIND       PRES   REMARKS
TUCUMCARI      SUNNY     69  62  78 N7        30.07F
CANNON AFB     SUNNY     70  63  79 SW3       30.09S
CLOVIS AIRPORT SUNNY     68  63  83 CALM      30.10S

$$
NMZ028-029-538-041500-
SOUTHEAST PLAINS

CITY           SKY/WX    TMP DP  RH WIND       PRES   REMARKS
ROSWELL        SUNNY     71  64  78 N3        30.07R
ARTESIA        SUNNY     72  68  88 CALM      30.07S
CARLSBAD       SUNNY     75  65  70 S9        30.03S
HOBBS          SUNNY     75  64  69 SW6       30.07S


$$


USA.gov is the U.S. government's official web portal to all federal, state and local government web resources and services.